Year,Month,Day,Hour,Minute,Value (Times are PST for temperature in C)
2014,08,11,15,22,25.00
2014,08,11,15,23,24.90
2014,08,11,15,24,24.70
2014,08,11,15,25,24.60
2014,08,11,15,26,24.50
2014,08,11,15,27,24.50
2014,08,11,15,28,24.50
2014,08,11,15,29,24.50
2014,08,11,15,30,24.50
2014,08,11,15,31,24.50
2014,08,11,15,32,24.60
2014,08,11,15,33,24.70
2014,08,11,15,34,24.60
2014,08,11,15,35,24.60
2014,08,11,15,36,24.60
2014,08,11,15,37,24.50
2014,08,11,15,38,24.40
2014,08,11,15,39,24.40
2014,08,11,15,40,24.50
2014,08,11,15,41,24.50
2014,08,11,15,42,24.60
2014,08,11,15,43,24.60
2014,08,11,15,44,24.60
2014,08,11,15,45,24.70
2014,08,11,15,46,24.80
2014,08,11,15,47,24.90
2014,08,11,15,48,24.90
2014,08,11,15,49,24.90
2014,08,11,15,50,24.80
2014,08,11,15,51,24.80
2014,08,11,15,52,24.70
2014,08,11,15,53,24.60
2014,08,11,15,54,24.60
2014,08,11,15,55,24.60
2014,08,11,15,56,24.50
2014,08,11,15,57,24.40
2014,08,11,15,58,24.40
2014,08,11,15,59,24.30
2014,08,11,16,00,24.20
2014,08,11,16,01,24.00
2014,08,11,16,02,23.80
2014,08,11,16,03,23.60
2014,08,11,16,04,23.40
2014,08,11,16,05,23.20
2014,08,11,16,06,23.20
2014,08,11,16,07,23.10
2014,08,11,16,08,23.00
2014,08,11,16,09,23.00
2014,08,11,16,10,22.90
2014,08,11,16,11,22.80
2014,08,11,16,12,22.80
2014,08,11,16,13,22.60
2014,08,11,16,14,22.50
2014,08,11,16,15,22.30
2014,08,11,16,16,22.10
2014,08,11,16,17,21.80
2014,08,11,16,18,21.60
2014,08,11,16,19,21.30
2014,08,11,16,20,21.20
2014,08,11,16,21,21.00
2014,08,11,16,22,20.90
2014,08,11,16,23,20.80
2014,08,11,16,24,20.80
2014,08,11,16,25,20.80
2014,08,11,16,26,20.80
2014,08,11,16,27,20.90
2014,08,11,16,28,21.00
2014,08,11,16,29,21.00
2014,08,11,16,30,21.10
2014,08,11,16,31,21.10
2014,08,11,16,32,21.20
2014,08,11,16,33,21.30
2014,08,11,16,34,21.40
2014,08,11,16,35,21.50
2014,08,11,16,36,21.60
2014,08,11,16,37,21.70
2014,08,11,16,38,21.80
2014,08,11,16,39,21.90
2014,08,11,16,40,22.00
2014,08,11,16,41,22.10
2014,08,11,16,42,22.20
2014,08,11,16,43,22.40
2014,08,11,16,44,22.50
2014,08,11,16,45,22.60
2014,08,11,16,46,22.60
2014,08,11,16,47,22.50
2014,08,11,16,48,22.40
2014,08,11,16,49,22.20
2014,08,11,16,50,21.90
2014,08,11,16,51,21.60
2014,08,11,16,52,21.20
2014,08,11,16,53,21.00
2014,08,11,16,54,20.80
2014,08,11,16,55,20.70
2014,08,11,16,56,20.50
2014,08,11,16,57,20.30
2014,08,11,16,58,20.10
2014,08,11,16,59,19.90
2014,08,11,17,00,19.70
2014,08,11,17,01,19.60
2014,08,11,17,02,19.50
2014,08,11,17,03,19.40
2014,08,11,17,04,19.30
2014,08,11,17,05,19.20
2014,08,11,17,06,19.20
2014,08,11,17,07,19.20
2014,08,11,17,08,19.10
2014,08,11,17,09,19.10
2014,08,11,17,10,19.20
2014,08,11,17,11,19.20
2014,08,11,17,12,19.20
2014,08,11,17,13,19.20
2014,08,11,17,14,19.20
2014,08,11,17,15,19.20
2014,08,11,17,16,19.20
2014,08,11,17,17,19.20
2014,08,11,17,18,19.20
2014,08,11,17,19,19.10
2014,08,11,17,20,19.10
2014,08,11,17,21,19.00
2014,08,11,17,22,18.90
2014,08,11,17,23,18.90
2014,08,11,17,24,18.90
2014,08,11,17,25,18.90
2014,08,11,17,26,18.90
2014,08,11,17,27,18.90
2014,08,11,17,28,18.90
2014,08,11,17,29,18.90
2014,08,11,17,30,18.90
2014,08,11,17,31,19.00
2014,08,11,17,32,19.00
2014,08,11,17,33,18.90
2014,08,11,17,34,18.90
2014,08,11,17,35,18.90
2014,08,11,17,36,18.90
2014,08,11,17,37,18.90
2014,08,11,17,38,18.90
2014,08,11,17,39,18.90
2014,08,11,17,40,19.00
2014,08,11,17,41,19.00
2014,08,11,17,42,19.10
2014,08,11,17,43,19.10
2014,08,11,17,44,19.20
2014,08,11,17,45,19.20
2014,08,11,17,46,19.30
2014,08,11,17,47,19.30
2014,08,11,17,48,19.30
2014,08,11,17,49,19.30
2014,08,11,17,50,19.30
2014,08,11,17,51,19.40
2014,08,11,17,52,19.40
2014,08,11,17,53,19.50
2014,08,11,17,54,19.50
2014,08,11,17,55,19.50
2014,08,11,17,56,19.50
2014,08,11,17,57,19.60
2014,08,11,17,58,19.60
2014,08,11,17,59,19.60
2014,08,11,18,00,19.60
2014,08,11,18,01,19.60
2014,08,11,18,02,19.50
2014,08,11,18,03,19.50
2014,08,11,18,04,19.50
2014,08,11,18,05,19.50
2014,08,11,18,06,19.50
2014,08,11,18,07,19.50
2014,08,11,18,08,19.40
2014,08,11,18,09,19.40
2014,08,11,18,10,19.40
2014,08,11,18,11,19.40
2014,08,11,18,12,19.30
2014,08,11,18,13,19.30
2014,08,11,18,14,19.30
2014,08,11,18,15,19.30
2014,08,11,18,16,19.30
2014,08,11,18,17,19.20
2014,08,11,18,18,19.20
2014,08,11,18,19,19.20
2014,08,11,18,20,19.20
2014,08,11,18,21,19.20
2014,08,11,18,22,19.20
2014,08,11,18,23,19.20
2014,08,11,18,24,19.20
2014,08,11,18,25,19.20
2014,08,11,18,26,19.30
2014,08,11,18,27,19.30
2014,08,11,18,28,19.30
2014,08,11,18,29,19.30
2014,08,11,18,30,19.40
2014,08,11,18,31,19.40
2014,08,11,18,32,19.40
2014,08,11,18,33,19.40
2014,08,11,18,34,19.40
2014,08,11,18,35,19.40
2014,08,11,18,36,19.50
2014,08,11,18,37,19.50
2014,08,11,18,38,19.50
2014,08,11,18,39,19.60
2014,08,11,18,40,19.60
2014,08,11,18,41,19.60
2014,08,11,18,42,19.60
2014,08,11,18,43,19.60
2014,08,11,18,44,19.60
2014,08,11,18,45,19.60
2014,08,11,18,46,19.60
2014,08,11,18,47,19.60
2014,08,11,18,48,19.60
2014,08,11,18,49,19.60
2014,08,11,18,50,19.60
2014,08,11,18,51,19.60
2014,08,11,18,52,19.60
2014,08,11,18,53,19.60
2014,08,11,18,54,19.60
2014,08,11,18,55,19.60
2014,08,11,18,56,19.60
2014,08,11,18,57,19.60
2014,08,11,18,58,19.60
2014,08,11,18,59,19.60
2014,08,11,19,00,19.60
2014,08,11,19,01,19.60
2014,08,11,19,02,19.60
2014,08,11,19,03,19.60
2014,08,11,19,04,19.60
2014,08,11,19,05,19.60
2014,08,11,19,06,19.60
2014,08,11,19,07,19.60
2014,08,11,19,08,19.60
2014,08,11,19,09,19.60
2014,08,11,19,10,19.60
2014,08,11,19,11,19.70
2014,08,11,19,12,19.70
2014,08,11,19,13,19.70
2014,08,11,19,14,19.80
2014,08,11,19,15,19.80
2014,08,11,19,16,19.90
2014,08,11,19,17,19.90
2014,08,11,19,18,20.00
2014,08,11,19,19,20.00
2014,08,11,19,20,20.10
2014,08,11,19,21,20.20
2014,08,11,19,22,20.30
2014,08,11,19,23,20.30
2014,08,11,19,24,20.40
2014,08,11,19,25,20.50
2014,08,11,19,26,20.50
2014,08,11,19,27,20.60
2014,08,11,19,28,20.60
2014,08,11,19,29,20.70
2014,08,11,19,30,20.70
2014,08,11,19,31,20.70
2014,08,11,19,32,20.70
2014,08,11,19,33,20.70
2014,08,11,19,34,20.70
2014,08,11,19,35,20.80
2014,08,11,19,36,20.80
2014,08,11,19,37,20.80
2014,08,11,19,38,20.80
2014,08,11,19,39,20.80
2014,08,11,19,40,20.80
2014,08,11,19,41,20.80
2014,08,11,19,42,20.70
2014,08,11,19,43,20.60
2014,08,11,19,44,20.50
2014,08,11,19,45,20.30
2014,08,11,19,46,20.20
2014,08,11,19,47,20.10
2014,08,11,19,48,20.00
2014,08,11,19,49,19.80
2014,08,11,19,50,19.80
2014,08,11,19,51,19.70
2014,08,11,19,52,19.60
2014,08,11,19,53,19.50
2014,08,11,19,54,19.30
2014,08,11,19,55,19.20
2014,08,11,19,56,19.00
2014,08,11,19,57,18.90
2014,08,11,19,58,18.80
2014,08,11,19,59,18.80
2014,08,11,20,00,18.70
2014,08,11,20,01,18.70
2014,08,11,20,02,18.60
2014,08,11,20,03,18.60
2014,08,11,20,04,18.50
2014,08,11,20,05,18.50
2014,08,11,20,06,18.40
2014,08,11,20,07,18.30
2014,08,11,20,08,18.30
2014,08,11,20,09,18.30
2014,08,11,20,10,18.30
2014,08,11,20,11,18.20
2014,08,11,20,12,18.20
2014,08,11,20,13,18.20
2014,08,11,20,14,18.10
2014,08,11,20,15,18.10
2014,08,11,20,16,18.00
2014,08,11,20,17,18.00
2014,08,11,20,18,17.90
2014,08,11,20,19,17.90
2014,08,11,20,20,17.90
2014,08,11,20,21,17.80
2014,08,11,20,22,17.80
2014,08,11,20,23,17.60
2014,08,11,20,24,17.50
2014,08,11,20,25,17.40
2014,08,11,20,26,17.30
2014,08,11,20,27,17.20
2014,08,11,20,28,17.20
2014,08,11,20,29,17.10
2014,08,11,20,30,17.10
2014,08,11,20,31,17.00
2014,08,11,20,32,17.00
2014,08,11,20,33,16.90
2014,08,11,20,34,16.90
2014,08,11,20,35,16.90
2014,08,11,20,36,16.90
2014,08,11,20,37,16.90
2014,08,11,20,38,16.90
2014,08,11,20,39,16.90
2014,08,11,20,40,16.90
2014,08,11,20,41,16.80
2014,08,11,20,42,16.80
2014,08,11,20,43,16.80
2014,08,11,20,44,16.80
2014,08,11,20,45,16.80
2014,08,11,20,46,16.70
2014,08,11,20,47,16.70
2014,08,11,20,48,16.70
2014,08,11,20,49,16.60
2014,08,11,20,50,16.60
2014,08,11,20,51,16.60
2014,08,11,20,52,16.50
2014,08,11,20,53,16.40
2014,08,11,20,54,16.40
2014,08,11,20,55,16.40
2014,08,11,20,56,16.40
2014,08,11,20,57,16.30
2014,08,11,20,58,16.30
2014,08,11,20,59,16.30
2014,08,11,21,00,16.30
2014,08,11,21,01,16.30
2014,08,11,21,02,16.30
2014,08,11,21,03,16.30
2014,08,11,21,04,16.30
2014,08,11,21,05,16.30
2014,08,11,21,06,16.30
2014,08,11,21,07,16.30
2014,08,11,21,08,16.30
2014,08,11,21,09,16.20
2014,08,11,21,10,16.20
2014,08,11,21,11,16.20
2014,08,11,21,12,16.10
2014,08,11,21,13,16.10
2014,08,11,21,14,16.10
2014,08,11,21,15,16.10
2014,08,11,21,16,16.10
2014,08,11,21,17,16.10
2014,08,11,21,18,16.10
2014,08,11,21,19,16.00
2014,08,11,21,20,16.00
2014,08,11,21,21,15.80
2014,08,11,21,22,15.70
2014,08,11,21,23,15.60
2014,08,11,21,24,15.50
2014,08,11,21,25,15.30
2014,08,11,21,26,15.10
2014,08,11,21,27,15.00
2014,08,11,21,28,14.90
2014,08,11,21,29,14.80
2014,08,11,21,30,14.70
2014,08,11,21,31,14.60
2014,08,11,21,32,14.60
2014,08,11,21,33,14.60
2014,08,11,21,34,14.60
2014,08,11,21,35,14.60
2014,08,11,21,36,14.60
2014,08,11,21,37,14.60
2014,08,11,21,38,14.60
2014,08,11,21,39,14.60
2014,08,11,21,40,14.60
2014,08,11,21,41,14.70
2014,08,11,21,42,14.70
2014,08,11,21,43,14.70
2014,08,11,21,44,14.70
2014,08,11,21,45,14.70
2014,08,11,21,46,14.70
2014,08,11,21,47,14.70
2014,08,11,21,48,14.70
2014,08,11,21,49,14.70
2014,08,11,21,50,14.70
2014,08,11,21,51,14.70
2014,08,11,21,52,14.70
2014,08,11,21,53,14.70
2014,08,11,21,54,14.70
2014,08,11,21,55,14.70
2014,08,11,21,56,14.70
2014,08,11,21,57,14.70
2014,08,11,21,58,14.70
2014,08,11,21,59,14.70
2014,08,11,22,00,14.70
2014,08,11,22,01,14.70
2014,08,11,22,02,14.70
2014,08,11,22,03,14.70
2014,08,11,22,04,14.70
2014,08,11,22,05,14.70
2014,08,11,22,06,14.60
2014,08,11,22,07,14.60
2014,08,11,22,08,14.60
2014,08,11,22,09,14.60
2014,08,11,22,10,14.50
2014,08,11,22,11,14.50
2014,08,11,22,12,14.40
2014,08,11,22,13,14.40
2014,08,11,22,14,14.40
2014,08,11,22,15,14.30
2014,08,11,22,16,14.30
2014,08,11,22,17,14.30
2014,08,11,22,18,14.20
2014,08,11,22,19,14.10
2014,08,11,22,20,14.10
2014,08,11,22,21,14.00
2014,08,11,22,22,14.00
2014,08,11,22,23,13.90
2014,08,11,22,24,13.90
2014,08,11,22,25,13.90
2014,08,11,22,26,13.80
2014,08,11,22,27,13.80
2014,08,11,22,28,13.80
2014,08,11,22,29,13.80
2014,08,11,22,30,13.80
2014,08,11,22,31,13.80
2014,08,11,22,32,13.80
2014,08,11,22,33,13.70
2014,08,11,22,34,13.70
2014,08,11,22,35,13.80
2014,08,11,22,36,13.80
2014,08,11,22,37,13.80
2014,08,11,22,38,13.80
2014,08,11,22,39,13.80
2014,08,11,22,40,13.80
2014,08,11,22,41,13.80
2014,08,11,22,42,13.80
2014,08,11,22,43,13.80
2014,08,11,22,44,13.80
2014,08,11,22,45,13.80
2014,08,11,22,46,13.80
2014,08,11,22,47,13.80
2014,08,11,22,48,13.80
2014,08,11,22,49,13.80
2014,08,11,22,50,13.80
2014,08,11,22,51,13.80
2014,08,11,22,52,13.70
2014,08,11,22,53,13.70
2014,08,11,22,54,13.70
2014,08,11,22,55,13.70
2014,08,11,22,56,13.70
2014,08,11,22,57,13.70
2014,08,11,22,58,13.60
2014,08,11,22,59,13.60
2014,08,11,23,00,13.50
2014,08,11,23,01,13.50
2014,08,11,23,02,13.40
2014,08,11,23,03,13.40
2014,08,11,23,04,13.40
2014,08,11,23,05,13.40
2014,08,11,23,06,13.40
2014,08,11,23,07,13.40
2014,08,11,23,08,13.40
2014,08,11,23,09,13.40
2014,08,11,23,10,13.40
2014,08,11,23,11,13.40
2014,08,11,23,12,13.40
2014,08,11,23,13,13.40
2014,08,11,23,14,13.40
2014,08,11,23,15,13.40
2014,08,11,23,16,13.40
2014,08,11,23,17,13.40
2014,08,11,23,18,13.40
2014,08,11,23,19,13.40
2014,08,11,23,20,13.40
2014,08,11,23,21,13.30
2014,08,11,23,22,13.30
2014,08,11,23,23,13.30
2014,08,11,23,24,13.30
2014,08,11,23,25,13.30
2014,08,11,23,26,13.30
2014,08,11,23,27,13.30
2014,08,11,23,28,13.30
2014,08,11,23,29,13.30
2014,08,11,23,30,13.20
2014,08,11,23,31,13.20
2014,08,11,23,32,13.20
2014,08,11,23,33,13.20
2014,08,11,23,34,13.20
2014,08,11,23,35,13.20
2014,08,11,23,36,13.20
2014,08,11,23,37,13.20
2014,08,11,23,38,13.10
2014,08,11,23,39,13.10
2014,08,11,23,40,13.10
2014,08,11,23,41,13.10
2014,08,11,23,42,13.10
2014,08,11,23,43,13.10
2014,08,11,23,44,13.00
2014,08,11,23,45,13.00
2014,08,11,23,46,13.00
2014,08,11,23,47,13.00
2014,08,11,23,48,13.00
2014,08,11,23,49,12.90
2014,08,11,23,50,12.90
2014,08,11,23,51,12.90
2014,08,11,23,52,12.90
2014,08,11,23,53,12.90
2014,08,11,23,54,12.90
2014,08,11,23,55,12.90
2014,08,11,23,56,12.90
2014,08,11,23,57,12.80
2014,08,11,23,58,12.80
2014,08,11,23,59,12.80
